Welcome to the New NWS' Forecast!
Most changes are behind the scenes, but click here for differences you might notice.
Latest weather observations around

WX6HNX-11 Sequoia NP (AT846)

Using English Units (Switch to International System of Units)
Date/ Time (PDT) Wind (mph) Vis. (mi) Weather Sky Cond. Temp (°F) Rel. Humidity Wind Chill (°F) Heat Index (°F) Pressure Precip. (in)
Air Dwpt 6 hour Altimeter (inHg) Sea level (inHg) 1 hr 3 hr 6 hr
Max Min
Sep 24 10:16 WSW 3   Clear   48 32     54% 47   30.06        
Sep 24 10:11 SW 2   Clear   48 33     55%     30.06        
Sep 24 10:06 WSW 1   Clear   48 34     57%     30.06        
Sep 24 10:01 WSW 1   Clear   47 33     57%     30.06        
Sep 24 09:56 WSW 2   Clear   47 33     58%     30.06        
Sep 24 09:46 WSW 2   Clear   45 34     64%     30.06        
Sep 24 09:41 WSW 3   Clear   44 33     66% 43   30.06        
Sep 24 09:36 SW 2   Clear   43 33     68%     30.06        
Sep 24 09:31 S 1   Clear   42 35     76%     30.03        
Sep 24 09:26 S 1   Clear   41 33     74%     30.04        
Sep 24 09:21 S 1   Clear   41 34     75%     30.04        
Sep 24 09:16 SSW 1   Clear   40 34     80%     30.04        
Sep 24 09:11 WSW 1   Clear   39 34     81%     30.04        
Sep 24 09:06 Calm   Clear   38 34     84%     30.04        
Sep 24 09:01 Calm   Clear   37 34     87%     30.04        
Sep 24 08:56 Calm   Clear   37 34     88%     30.04        
Sep 24 08:51 Calm   Clear   36 33     89%     30.04        
Sep 24 08:46 Calm   Clear   35 33     91%     30.04        
Sep 24 08:41 Calm   Clear   35 33     92%     30.04        
Sep 24 08:36 Calm   Clear   34 32     93%     30.04        
Sep 24 08:31 Calm   Clear   34 32     93%     30.04        
Sep 24 08:26 Calm   Clear   33 31     94%     30.04        
Sep 24 08:21 Calm   Clear   33 31     93%     30.04        
Sep 24 08:16 Calm   Clear   33 31     93%     30.04        
Sep 24 08:06 Calm   Clear   32 30     92%     30.04        
Sep 24 08:01 Calm   Clear   32 30     92%     30.04        
Sep 24 07:51 Calm   Clear   32 30     92%     30.04        
Sep 24 07:46 Calm   Clear   32 30     92%     30.04        
Sep 24 07:36 Calm   Clear   32 30     91%     30.04        
Sep 24 07:29 Calm   Clear   32 30     92%     30.03        
Sep 24 07:22 Calm   Clear   32 30     91%     30.03        
Sep 24 07:17 Calm   Clear   32 30     91%     30.03        
Sep 24 07:12 Calm   Clear   32 30     91%     30.03        
Sep 24 07:07 Calm   Clear   32 30     91%     30.04        
Sep 24 07:02 Calm   Clear   32 30     91%     30.03        
Sep 24 06:57 Calm   Clear   32 30     91%     30.03        
Sep 24 06:52 Calm   Clear   32 30     91%     30.03        
Sep 24 06:47 Calm   Clear   32 30     91%     30.03        
Sep 24 06:42 Calm   Clear   32 30     91%     30.03        
Sep 24 06:37 Calm   Clear   32 30     91%     30.03        
Sep 24 06:32 Calm   Clear   32 30     91%     30.03        
Sep 24 06:27 Calm   Clear   32 30     91%     30.03        
Sep 24 06:22 Calm   Clear   32 30     91%     30.03        
Sep 24 06:17 Calm   Clear   32 30     91%     30.03        
Sep 24 06:12 Calm   Clear   32 30     91%     30.03        
Sep 24 06:07 Calm   Clear   32 30     91%     30.02        
Sep 24 05:57 Calm   Clear   32 30     91%     30.02        
Sep 24 05:52 Calm   Clear   32 30     91%     30.02        
Sep 24 05:47 Calm   Clear   32 30     91%     30.02        
Sep 24 05:42 Calm   Clear   32 30     91%     30.02        
Sep 24 05:37 Calm   Clear   32 30     91%     30.01        
Sep 24 05:17 Calm   Clear   32 30     91%     30.01        
Sep 24 05:12 Calm   Clear   32 30     91%     30.01        
Sep 24 05:07 Calm   Clear   32 30     91%     30.01        
Sep 24 05:02 Calm   Clear   32 30     91%     30.01        
Sep 24 04:57 Calm   Clear   32 30     91%     30.01        
Sep 24 04:47 Calm   Clear   32 30     91%     30.01        
Sep 24 04:42 Calm   Clear   32 29     90%     30.01        
Sep 24 04:37 Calm   Clear   32 29     90%     30.01        
Sep 24 04:29 Calm   Clear   32 29     90%     30.01        
Sep 24 04:22 Calm   Clear   32 29     90%     30.01        
Sep 24 04:16 Calm   Clear   32 30     91%     30.01        
Sep 24 04:11 Calm   Clear   32 29     90%     30.01        
Sep 24 04:06 Calm   Clear   32 30     91%     30.01        
Sep 24 04:01 Calm   Clear   32 30     91%     30.01        
Sep 24 03:56 Calm   Clear   33 30     90%     30.01        
Sep 24 03:51 Calm   Clear   33 30     90%     30.01        
Sep 24 03:46 Calm   Clear   33 30     90%     30.01        
Sep 24 03:41 Calm   Clear   33 30     90%     30.01        
Sep 24 03:36 Calm   Clear   33 30     90%     30.01        
Sep 24 03:31 Calm   Clear   33 30     90%     30.01        
Sep 24 03:26 Calm   Clear   33 30     90%     30.01        
Sep 24 03:21 Calm   Clear   33 30     90%     30.01        
Sep 24 03:16 Calm   Clear   33 30     90%     30.01        
Sep 24 03:06 Calm   Clear   33 30     90%     30.01        
Sep 24 03:01 Calm   Clear   33 30     90%     30.01        
Sep 24 02:56 Calm   Clear   33 30     90%     30.01        
Sep 24 02:51 Calm   Clear   33 30     90%     30.01        
Sep 24 02:46 Calm   Clear   33 30     90%     30.01        
Sep 24 02:41 Calm   Clear   33 30     89%     30.01        
Sep 24 02:36 Calm   Clear   33 30     89%     30.01        
Sep 24 02:31 Calm   Clear   34 31     89%     30.01        
Sep 24 02:26 Calm   Clear   34 31     89%     30.01        
Sep 24 02:21 Calm   Clear   34 31     89%     30.01        
Sep 24 02:16 Calm   Clear   34 31     89%     30.01        
Sep 24 02:11 Calm   Clear   34 31     89%     30.01        
Sep 24 02:06 Calm   Clear   34 31     88%     30.01        
Sep 24 02:01 Calm   Clear   34 31     88%     30.01        
Sep 24 01:56 Calm   Clear   34 31     88%     30.01        
Sep 24 01:51 Calm   Clear   35 32     88%     30.01        
Sep 24 01:46 Calm   Clear   35 32     88%     30.01        
Sep 24 01:41 Calm   Clear   35 32     88%     30.01        
Sep 24 01:36 Calm   Clear   35 32     88%     30.01        
Sep 24 01:31 Calm   Clear   35 32     88%     30.01        
Sep 24 01:26 Calm   Clear   35 32     88%     30.01        
Sep 24 01:21 Calm   Clear   35 32     88%     30.01        
Sep 24 01:16 Calm   Clear   35 32     88%     30.01        
Sep 24 01:11 Calm   Clear   35 32     88%     30.01        
Sep 24 00:41 Calm   Clear   36 33     88%     30.02        
Sep 24 00:26 Calm   Clear   36 33     87%     30.01        
Sep 24 00:02 Calm   Clear   36 33     87%     30.01        
Sep 23 23:57 Calm   Clear   36 33     87%     30.01        
Sep 23 23:52 Calm   Clear   36 33     87%     30.01        
Sep 23 23:47 Calm   Clear   37 33     86%     30.02        
Sep 23 23:37 Calm   Clear   37 33     86%     30.01        
Sep 23 23:27 Calm   Clear   37 34     87%     30.02        
Sep 23 23:22 Calm   Clear   37 34     88%     30.02        
Sep 23 23:10 Calm   Clear   37 34     87%     30.01        
Sep 23 23:05 Calm   Clear   37 34     87%     30.02        
Sep 23 23:00 Calm   Clear   37 34     87%     30.01        
Sep 23 22:55 Calm   Clear   37 34     88%     30.01        
Sep 23 22:50 Calm   Clear   37 34     87%     30.01        
Sep 23 22:40 Calm   Clear   37 34     87%     30.01        
Sep 23 22:30 Calm   Clear   37 33     86%     30.01        
Sep 23 22:25 Calm   Clear   37 33     86%     30.01        
Sep 23 22:20 Calm   Clear   37 33     86%     30.01        
Sep 23 22:10 Calm   Clear   38 34     86%     30        
Sep 23 22:05 Calm   Clear   38 34     86%     30        
Sep 23 22:00 Calm   Clear   38 34     86%     30        
Sep 23 21:45 Calm   Clear   38 34     85%     30        
Sep 23 21:40 Calm   Clear   38 34     86%     30        
Sep 23 21:35 Calm   Clear   38 34     86%     30        
Sep 23 21:30 Calm   Clear   38 34     85%     29.99        
Sep 23 21:25 Calm   Clear   38 34     85%     29.99        
Sep 23 21:15 Calm   Clear   39 35     85%     29.99        
Sep 23 21:10 Calm   Clear   39 35     84%     29.99        
Sep 23 21:00 Calm   Clear   39 35     85%     29.99        
Sep 23 20:55 Calm   Clear   39 35     84%     29.98        
Sep 23 20:45 Calm   Clear   40 36     84%     29.98        
Sep 23 20:40 Calm   Clear   40 36     84%     29.98        
Sep 23 20:30 Calm   Clear   40 36     84%     29.98        
Sep 23 20:25 Calm   Clear   40 35     83%     29.98        
Sep 23 20:15 Calm   Clear   41 35     80%     29.98        
Sep 23 20:10 Calm   Clear   42 36     79%     29.98        
Sep 23 20:05 Calm   Clear   42 36     79%     29.98        
Sep 23 20:00 Calm   Clear   43 37     78%     29.98        
Sep 23 19:55 Calm   Clear   43 37     78%     29.98        
Sep 23 19:50 Calm   Clear   43 36     77%     29.98        
Sep 23 19:45 Calm   Clear   44 37     76%     29.98        
Sep 23 19:40 Calm   Clear   44 37     76%     29.98        
Sep 23 19:35 Calm   Clear   44 37     76%     29.98        
Sep 23 19:30 Calm   Clear   45 38     76%     29.98        
Sep 23 19:25 Calm   Clear   45 38     75%     29.98        
Sep 23 19:20 Calm   Clear   45 37     74%     29.98        
Sep 23 19:15 Calm   Clear   45 37     74%     29.98        
Sep 23 19:10 Calm   Clear   45 37     74%     29.98        
Sep 23 19:05 Calm   Clear   45 37     74%     29.98        
Sep 23 18:55 Calm   Clear   45 37     74%     29.98        
Sep 23 18:40 Calm   Clear   45 38     75%     29.98        
Sep 23 18:35 Calm   Clear   45 37     74%     29.98        
Sep 23 18:30 Calm   Clear   45 37     73%     29.98        
Sep 23 18:10 Calm   Clear   45 38     75%     29.99        
Sep 23 18:05 Calm   Clear   45 37     74%     29.99        
Sep 23 17:50 Calm   Clear   44 36     74%     29.99        
Sep 23 17:35 WSW 1   Clear   45 37     74%     29.99        
Sep 23 17:19 Calm   Clear   45 37     74%     29.98        
Sep 23 17:14 Calm   Clear   45 38     76%     29.98        
Sep 23 17:09 Calm   Clear   45 38     75%     29.98        
Sep 23 17:04 Calm   Clear   45 38     76%     29.98        
Sep 23 16:59 SW 1   Clear   45 38     75%     29.98        
Sep 23 16:44 Calm   Clear   44 37     77%     29.98        
Sep 23 16:39 SW 3   Clear   44 36     74% 43   29.98        
Sep 23 16:34 W 1   Clear   45 38     75%     29.98        
Sep 23 16:29 WSW 3   Clear   45 38     75% 44   29.98        
Sep 23 16:24 Calm   Clear   45 38     76%     29.98        
Sep 23 16:19 Calm   Clear   45 38     75%     29.98        
Sep 23 16:14 WSW 1   Clear   45 38     75%     29.98        
Sep 23 16:09 Calm   Clear   45 38     75%     29.98        
Sep 23 16:04 SW 3   Clear   45 37     74% 44   29.98        
Sep 23 15:59 WSW 1   Clear   45 38     76%     29.98        
Sep 23 15:54 WSW 2   Clear   45 37     74%     29.98        
Sep 23 15:49 WSW 4   Clear   45 37     72% 43   29.98        
Sep 23 15:44 SW 4   Clear   46 37     72% 44   29.98        
Sep 23 15:39 WSW 4   Clear   46 37     70% 44   29.98        
Sep 23 15:34 WSW 2   Clear   47 38     72%     29.98        
Sep 23 15:29 Calm   Clear   46 38     74%     29.98        
Sep 23 15:24 WSW 4   Clear   46 38     73% 44   29.98        
Sep 23 15:19 WSW 4   Clear   46 38     73% 44   29.98        
Sep 23 15:14 WSW 1   Clear   46 38     73%     29.98        
Sep 23 15:09 WSW 1   Clear   46 37     71%     29.98        
Sep 23 14:59 W 2   Clear   46 38     73%     29.98        
Sep 23 14:54 WSW 2   Clear   46 38     73%     29.98        
Sep 23 14:49 WSW 3   Clear   46 37     72% 45   29.98        
Sep 23 14:44 SW 2   Clear   45 37     74%     29.98        
Sep 23 14:39 WSW 3   Clear   45 37     72% 44   29.98        
Sep 23 14:30 WSW 4   Clear   46 36     69% 44   29.98        
Sep 23 14:25 WNW 1   Clear   46 37     71%     29.98        
Sep 23 14:20 WSW 3   Clear   46 37     71% 45   29.98        
Sep 23 14:15 WSW 4   Clear   47 37     67% 45   29.98        
Sep 23 14:10 SW 3   Clear   48 37     66% 47   29.98        
Sep 23 14:05 SSW 2   Clear   48 38     68%     29.97        
Sep 23 14:00 WSW 3   Clear   47 37     68% 46   29.97        
Sep 23 13:55 WSW 5   Clear   47 37     67% 45   29.97        
Sep 23 13:45 WSW 5   Clear   48 36     64% 46   29.97        
Sep 23 13:40 SW 5   Clear   49 37     63% 47   29.97        
Sep 23 13:35 WSW 1   Clear   49 38     66%     29.97        
Sep 23 13:30 WSW 2   Clear   48 39     72%     29.97        
Sep 23 13:25 W 1   Clear   47 37     68%     29.97        
Sep 23 13:20 SSW 5   Clear   47 37     69% 45   29.97        
Sep 23 13:15 WSW 6   Clear   47 36     66% 44   29.97        
Sep 23 13:10 WSW 5   Clear   46 35     66% 44   29.97        
Sep 23 13:05 SW 3   Clear   46 36     68% 45   29.97        
Sep 23 13:00 WSW 2   Clear   46 36     69%     29.97        
Sep 23 12:55 WSW 3   Clear   45 35     67% 44   29.97        
Sep 23 12:50 SW 1   Clear   45 37     72%     29.97        
Sep 23 12:45 WSW 2   Clear   46 37     71%     29.97        
Sep 23 12:40 SW 2   Clear   46 37     71%     29.97        
Sep 23 12:35 WSW 2   Clear   46 36     68%     29.95        
Sep 23 12:30 SW 2   Clear   47 37     68%     29.95        
Sep 23 12:25 WSW 5   Clear   47 36     65% 45   29.94        
Sep 23 12:20 SW 4   Clear   48 37     65% 47   29.94        
Sep 23 12:15 SW 5   Clear   47 35     62% 45   29.94        
Sep 23 12:10 SW 2   Clear   47 35     64%     29.94        
Sep 23 12:05 WNW 1   Clear   47 36     65%     29.94        
Sep 23 12:00 SW 4   Clear   47 35     64% 45   29.94        
Sep 23 11:55 WSW 3   Clear   47 37     67% 46   29.94        
Sep 23 11:50 WSW 3   Clear   46 37     70% 45   29.94        
Sep 23 11:45 SW 5   Clear   46 36     67% 44   29.95        
Sep 23 11:40 SW 4   Clear   46 37     70% 44   29.94        
Sep 23 11:35 SW 3   Clear   46 36     69% 45   29.94        
Sep 23 11:30 W 1   Clear   45 37     73%     29.95        
Sep 23 11:25 WSW 3   Clear   45 36     71% 44   29.95        
Sep 23 11:20 WSW 4   Clear   45 37     73% 43   29.95        
Sep 23 11:15 WSW 5   Clear   45 37     72% 42   29.95        
Sep 23 11:10 SW 5   Clear   45 37     73% 42   29.95        
Sep 23 11:05 SW 5   Clear   45 37     73% 42   29.95        
Sep 23 11:00 WSW 5   Clear   45 37     73% 42   29.95        
Sep 23 10:55 WSW 5   Clear   45 37     73% 42   29.95        
Sep 23 10:50 SW 4   Clear   45 37     74% 43   29.95        
Sep 23 10:45 WSW 5   Clear   45 37     74% 42   29.95        
Sep 23 10:40 SW 2   Clear   45 37     74%     29.95        
Sep 23 10:35 SW 3   Clear   44 36     74% 43   29.95        
Sep 23 10:30 SW 5   Clear   44 36     73% 41   29.95        
Sep 23 10:25 WSW 3   Clear   44 36     74% 43   29.95        
Sep 23 10:20 SW 3   Clear   44 36     74% 43   29.95        
Sep 23 10:15 WSW 2   Clear   44 36     74%     29.95        
Sep 23 10:10 SW 3   Clear   44 37     75% 43   29.95        
Sep 23 10:05 SW 3   Clear   43 36     75% 42   29.95        
Sep 23 10:00 Calm   Clear   43 36     76%     29.95        
Sep 23 09:55 WSW 1   Clear   43 36     77%     29.95        
Sep 23 09:50 SW 2   Clear   42 36     78%     29.95        
Sep 23 09:45 SW 3   Clear   42 36     78% 41   29.95        
Sep 23 09:40 SW 1   Clear   41 35     80%     29.95        
Sep 23 09:35 SW 2   Clear   40 35     81%     29.93        
Sep 23 09:30 Calm   Clear   39 33     79%     29.93        
Sep 23 09:25 Calm   Clear   38 32     79%     29.93        
Sep 23 09:20 Calm   Clear   38 32     80%     29.93        
Sep 23 09:15 WSW 1   Clear   37 33     84%     29.93        
Sep 23 08:58 WSW 1   Clear   35 32     90%     29.93        
Sep 23 08:48 Calm   Clear   35 33     92%     29.93        
Sep 23 08:38 Calm   Clear   34 32     93%     29.93        
Sep 23 08:33 Calm   Clear   34 32     93%     29.93        
Sep 23 08:23 Calm   Clear   33 31     94%     29.93        
Sep 23 08:18 Calm   Clear   32 30     93%     29.93        
Sep 23 08:13 Calm   Clear   32 30     93%     29.93        
Sep 23 08:08 Calm   Clear   32 30     93%     29.93        
Sep 23 08:03 Calm   Clear   31 29     92%     29.93        
Sep 23 07:58 Calm   Clear   31 29     92%     29.93        
Sep 23 07:53 Calm   Clear   31 29     92%     29.93        
Sep 23 07:48 Calm   Clear   31 29     92%     29.93        
Sep 23 07:43 Calm   Clear   31 29     91%     29.92        
Sep 23 07:38 Calm   Clear   31 29     91%     29.92        
Sep 23 07:33 Calm   Clear   31 29     91%     29.92        
Sep 23 07:23 Calm   Clear   32 30     91%     29.92        
Sep 23 07:18 Calm   Clear   31 29     91%     29.92        
Sep 23 06:58 Calm   Clear   31 29     91%     29.91        
Sep 23 06:43 Calm   Clear   31 29     91%     29.91        
Sep 23 06:33 Calm   Clear   31 29     91%     29.91        
Sep 23 06:28 Calm   Clear   31 29     91%     29.91        
Sep 23 06:22 Calm   Clear   31 29     91%     29.91        
Sep 23 06:17 Calm   Clear   31 29     91%     29.91        
Sep 23 06:12 Calm   Clear   32 30     91%     29.91        
Sep 23 06:07 Calm   Clear   32 30     91%     29.91        
Sep 23 06:02 Calm   Clear   32 30     91%     29.91        
Sep 23 05:57 Calm   Clear   32 30     91%     29.91        
Sep 23 05:52 Calm   Clear   32 30     91%     29.91        
Sep 23 05:47 Calm   Clear   32 30     91%     29.91        
Sep 23 05:42 Calm   Clear   32 30     91%     29.91        
Sep 23 05:37 Calm   Clear   32 30     91%     29.91        
Sep 23 05:32 Calm   Clear   32 30     91%     29.9        
Sep 23 05:27 Calm   Clear   32 30     91%     29.9        
Sep 23 05:22 Calm   Clear   32 30     91%     29.9        
Sep 23 05:17 Calm   Clear   32 30     91%     29.9        
Sep 23 05:12 Calm   Clear   32 30     91%     29.9        
Sep 23 05:07 Calm   Clear   32 30     91%     29.9        
Sep 23 04:57 Calm   Clear   32 30     91%     29.9        
Sep 23 04:47 Calm   Clear   32 30     91%     29.91        
Sep 23 04:42 Calm   Clear   32 30     91%     29.9        
Sep 23 04:37 Calm   Clear   32 30     91%     29.9        
Sep 23 04:32 Calm   Clear   32 30     91%     29.9        
Sep 23 04:27 Calm   Clear   32 30     91%     29.9        
Sep 23 04:22 Calm   Clear   32 29     90%     29.9        
Sep 23 04:12 Calm   Clear   32 29     90%     29.9        
Sep 23 04:07 Calm   Clear   32 29     90%     29.91        
Sep 23 04:02 Calm   Clear   32 29     90%     29.9        
Sep 23 03:57 Calm   Clear   32 29     90%     29.91        
Sep 23 03:52 Calm   Clear   32 29     89%     29.9        
Sep 23 03:47 Calm   Clear   33 30     89%     29.91        
Sep 23 03:42 Calm   Clear   33 30     90%     29.91        
Sep 23 03:37 Calm   Clear   33 30     90%     29.9        
Sep 23 03:32 Calm   Clear   33 30     90%     29.91        
Sep 23 03:27 Calm   Clear   33 30     90%     29.91        
Sep 23 03:22 Calm   Clear   33 30     89%     29.91        
Sep 23 03:17 Calm   Clear   33 30     89%     29.91        
Sep 23 03:12 Calm   Clear   33 30     89%     29.91        
Sep 23 03:07 Calm   Clear   33 30     89%     29.91        
Sep 23 03:02 Calm   Clear   33 30     89%     29.91        
Sep 23 02:57 Calm   Clear   33 30     89%     29.91        
Sep 23 02:52 Calm   Clear   33 30     89%     29.91        
Sep 23 02:47 Calm   Clear   33 30     89%     29.91        
Sep 23 02:42 Calm   Clear   33 30     90%     29.91        
Sep 23 02:37 Calm   Clear   33 30     89%     29.91        
Sep 23 02:32 Calm   Clear   33 30     89%     29.91        
Sep 23 02:27 Calm   Clear   34 31     89%     29.91        
Sep 23 02:22 Calm   Clear   34 31     90%     29.91        
Sep 23 02:17 Calm   Clear   34 31     89%     29.91        
Sep 23 02:12 Calm   Clear   34 31     89%     29.91        
Sep 23 02:07 Calm   Clear   34 31     89%     29.91        
Sep 23 02:02 Calm   Clear   34 31     88%     29.91        
Sep 23 01:57 Calm   Clear   34 31     89%     29.91        
Sep 23 01:52 Calm   Clear   35 32     89%     29.91        
Sep 23 01:47 Calm   Clear   35 32     89%     29.91        
Sep 23 01:42 Calm   Clear   35 32     89%     29.91        
Sep 23 01:37 Calm   Clear   35 32     88%     29.91        
Sep 23 01:32 Calm   Clear   35 32     88%     29.91        
Sep 23 01:27 Calm   Clear   35 32     89%     29.91        
Sep 23 01:22 Calm   Clear   35 32     89%     29.9        
Sep 23 01:17 Calm   Clear   35 32     89%     29.91        
Sep 23 01:12 Calm   Clear   35 32     89%     29.91        
Sep 23 01:07 Calm   Clear   36 33     88%     29.9        
Sep 23 00:57 Calm   Clear   36 33     88%     29.9        
Sep 23 00:47 Calm   Clear   36 33     88%     29.9        
Sep 23 00:42 Calm   Clear   36 33     88%     29.9        
Sep 23 00:37 Calm   Clear   37 34     88%     29.91        
Sep 23 00:27 Calm   Clear   37 34     87%     29.91        
Sep 23 00:22 Calm   Clear   37 34     87%     29.91        
Sep 23 00:17 Calm   Clear   38 34     87%     29.91        
Sep 23 00:12 Calm   Clear   38 34     87%     29.91        
Sep 23 00:07 Calm   Clear   38 35     88%     29.91        
Sep 23 00:02 Calm   Clear   38 35     88%     29.91        
Sep 22 23:57 Calm   Clear   38 35     88%     29.9        
Sep 22 23:52 Calm   Clear   38 35     88%     29.91        
Sep 22 23:47 Calm   Clear   38 35     88%     29.9        
Sep 22 23:42 Calm   Clear   38 34     87%     29.9        
Sep 22 23:37 Calm   Clear   39 35     87%     29.9        
Sep 22 23:32 Calm   Clear   39 35     87%     29.9        
Sep 22 23:22 Calm   Clear   39 35     87%     29.9        
Sep 22 23:17 Calm   Clear   40 36     87%     29.9        
Sep 22 23:12 Calm   Clear   40 36     87%     29.9        
Sep 22 23:07 Calm   Clear   40 36     87%     29.91        
Sep 22 23:02 Calm   Clear   40 36     87%     29.91        
Sep 22 22:57 Calm   Clear   40 36     87%     29.91        
Sep 22 22:52 Calm   Clear   40 37     88%     29.91        
Sep 22 22:47 Calm   Clear   40 37     88%     29.91        
Sep 22 22:37 Calm   Clear   40 37     89%     29.91        
Sep 22 22:32 Calm   Clear   40 37     89%     29.91        
Sep 22 22:22 Calm   Clear   40 37     90%     29.91        
Sep 22 22:17 Calm   Clear   40 37     90%     29.91        
Sep 22 22:12 Calm   Clear   40 37     90%     29.91        
Sep 22 22:07 Calm   Clear   40 37     89%     29.91        
Sep 22 22:02 Calm   Clear   40 37     89%     29.91        
Sep 22 21:42 Calm   Clear   41 38     88%     29.9        
Sep 22 21:32 Calm   Clear   40 37     88%     29.9        
Sep 22 21:22 Calm   Clear   40 37     88%     29.91        
Sep 22 21:17 Calm   Clear   40 37     89%     29.91        
Sep 22 21:12 Calm   Clear   40 37     89%     29.91        
Sep 22 21:07 Calm   Clear   40 37     88%     29.91        
Sep 22 21:02 Calm   Clear   41 38     88%     29.91        
Sep 22 20:57 Calm   Clear   41 38     88%     29.91        
Sep 22 20:52 Calm   Clear   41 38     88%     29.91        
Sep 22 20:47 Calm   Clear   41 38     88%     29.91        
Sep 22 20:42 Calm   Clear   41 38     89%     29.91        
Sep 22 20:37 Calm   Clear   41 38     89%     29.91        
Sep 22 20:32 Calm   Clear   40 37     89%     29.91        
Sep 22 20:27 Calm   Clear   40 37     89%     29.91        
Sep 22 20:22 Calm   Clear   40 37     89%     29.91        
Sep 22 20:17 Calm   Clear   40 37     89%     29.91        
Sep 22 20:12 Calm   Clear   40 37     89%     29.91        
Sep 22 20:07 Calm   Clear   41 38     89%     29.91        
Sep 22 20:02 Calm   Clear   41 38     89%     29.91        
Sep 22 19:57 WSW 1   Clear   41 38     88%     29.91        
Sep 22 19:52 Calm   Clear   41 38     88%     29.91        
Sep 22 19:47 Calm   Clear   41 38     88%     29.91        
Sep 22 19:42 Calm   Clear   41 38     88%     29.91        
Sep 22 19:37 Calm   Clear   41 38     88%     29.91        
Sep 22 19:32 Calm   Clear   41 38     88%     29.91        
Sep 22 19:27 Calm   Clear   41 38     88%     29.91        
Sep 22 19:22 Calm   Clear   41 38     88%     29.89        
Sep 22 19:17 Calm   Clear   41 38     88%     29.89        
Sep 22 19:11 Calm   Clear   41 38     88%     29.88        
Sep 22 18:39 Calm   Clear   41 37     87%     29.89        
Sep 22 18:34 Calm   Clear   41 38     88%     29.89        
Sep 22 18:29 Calm   Clear   41 38     88%     29.89        
Sep 22 18:09 Calm   Clear   41 37     87%     29.89        
Sep 22 18:04 Calm   Clear   41 37     87%     29.89        
Sep 22 17:59 Calm   Clear   41 37     87%     29.89        
Sep 22 17:54 Calm   Clear   41 38     88%     29.89        
Sep 22 17:49 Calm   Clear   40 37     89%     29.89        
Sep 22 17:44 Calm   Clear   40 37     88%     29.89        
Sep 22 17:39 Calm   Clear   40 37     88%     29.89        
Sep 22 17:34 Calm   Clear   40 37     88%     29.89        
Sep 22 17:24 Calm   Clear   40 37     88%     29.9        
Sep 22 17:19 WSW 1   Clear   40 37     88%     29.9        
Sep 22 17:05 Calm   Clear   40 37     88%     29.89        
Sep 22 17:00 Calm   Clear   40 37     88%     29.89        
Sep 22 16:55 WSW 1   Clear   40 37     88%     29.89        
Sep 22 16:50 Calm   Clear   40 36     87%     29.89        
Sep 22 16:45 Calm   Clear   40 37     88%     29.89        
Sep 22 16:40 Calm   Clear   40 37     88%     29.89        
Sep 22 16:35 SW 2   Clear   40 36     87%     29.89        
Sep 22 16:30 Calm   Clear   40 36     87%     29.89        
Sep 22 16:25 WSW 1   Clear   40 36     87%     29.89        
Sep 22 16:20 WSW 1   Clear   40 36     87%     29.89        
Sep 22 16:15 SW 1   Clear   40 36     87%     29.89        
Sep 22 16:10 WSW 2   Clear   40 36     86%     29.89        
Sep 22 16:05 Calm   Clear   40 36     87%     29.89        
Sep 22 15:58 WSW 2   Clear   41 37     85%     29.89        
Sep 22 15:48 WSW 2   Clear   41 37     84%     29.89        
Sep 22 15:43 SW 3   Clear   41 37     84% 39   29.89        
Sep 22 15:38 SW 3   Clear   41 36     83% 39   29.89        
Sep 22 15:28 WSW 2   Clear   42 37     83%     29.89        
Sep 22 15:23 WSW 5   Clear   42 37     81% 39   29.89        
Sep 22 15:18 WSW 2   Clear   42 37     82%     29.89        
Sep 22 15:13 WSW 3   Clear   43 37     79% 42   29.9        
Sep 22 15:08 WSW 2   Clear   43 38     81%     29.89        
Sep 22 15:03 WSW 5   Clear   43 37     79% 40   29.89        
Sep 22 14:58 SW 4   Clear   43 37     80% 41   29.89        
Sep 22 14:53 WSW 3   Clear   43 37     78% 42   29.9        
Sep 22 14:48 SW 3   Clear   43 37     79% 42   29.9        
Sep 22 14:38 WSW 4   Clear   42 36     78% 40   29.9        
Sep 22 14:33 WSW 5   Clear   43 36     77% 40   29.9        
Sep 22 14:23 WSW 4   Clear   43 37     79% 41   29.9        
Sep 22 14:08 SW 5   Clear   45 37     74% 42   29.91        
Sep 22 14:03 SW 2   Clear   45 38     75%     29.91        
Sep 22 13:58 NW 2   Clear   45 38     76%     29.91        
Sep 22 13:48 WSW 7   Clear   45 37     72% 41   29.91        
Sep 22 13:43 WSW 2   Clear   46 38     74%     29.91        
Sep 22 13:37 WSW 5   Clear   45 37     72% 42   29.91        
Sep 22 13:27 SW 4   Clear   44 36     73% 42   29.91        
Sep 22 13:22 WSW 4   Clear   44 36     73% 42   29.91        
Sep 22 13:17 WSW 2   Clear   43 36     75%     29.91        
Sep 22 13:12 SSW 6   Clear   43 36     75% 39   29.92        
Sep 22 13:07 SSW 2   Clear   42 36     78%     29.92        
Sep 22 13:02 S 2   Clear   42 35     75%     29.92        
Sep 22 12:57 SW 3   Clear   43 35     74% 42   29.93        
Sep 22 12:52 SW 1   Clear   43 36     77%     29.93        
Sep 22 12:47 WSW 4   Clear   43 36     77% 41   29.93        
Sep 22 12:42 WSW 4   Clear   43 35     72% 41   29.93        
Sep 22 12:37 SW 6   Clear   44 35     71% 41   29.93        
Sep 22 12:32 WSW 4   Clear   43 36     76% 41   29.93        
Sep 22 12:27 SW 4   Clear   43 36     76% 41   29.91        
Sep 22 12:22 SW 3   Clear   43 37     80% 42   29.91        
Sep 22 12:17 SW 3   Clear   42 35     76% 41   29.91        
Sep 22 12:12 SSW 2   Clear   42 35     77%     29.91        
Sep 22 12:07 Calm   Clear   42 36     78%     29.91        
Sep 22 12:02 WSW 2   Clear   42 36     79%     29.91        
Sep 22 11:57 Calm   Clear   41 36     81%     29.91        
Sep 22 11:49 SW 3   Clear   41 35     78% 39   29.91        
Sep 22 11:44 SW 3   Clear   41 35     80% 39   29.91        
Sep 22 11:39 SW 2   Clear   41 35     80%     29.91        
Sep 22 11:34 WSW 2   Clear   41 36     82%     29.91        
Sep 22 11:24 Calm   Clear   40 35     81%     29.92        
Sep 22 11:19 SW 4   Clear   40 34     79% 37   29.92        
Sep 22 11:14 WSW 2   Clear   40 35     82%     29.92        
Sep 22 11:09 Calm   Clear   40 36     84%     29.91        
Sep 22 10:59 WSW 3   Clear   39 34     82% 37   29.91        
Sep 22 10:54 W 3   Clear   39 34     81% 37   29.92        
Sep 22 10:49 WSW 2   Clear   39 34     83%     29.92        
Sep 22 10:44 Calm   Clear   38 33     83%     29.92        
Sep 22 10:35 WSW 1   Clear   38 34     85%     29.92        
Sep 22 10:30 Calm   Clear   37 33     86%     29.92        
Sep 22 10:25 WSW 1   Clear   37 34     87%     29.92        
Sep 22 10:20 Calm   Clear   36 33     88%     29.93        
Sep 22 10:15 WSW 2   Clear   36 33     88%     29.92        
Sep 22 10:10 Calm   Clear   35 32     89%     29.92        
Sep 22 10:05 WSW 1   Clear   34 31     90%     29.92        
Sep 22 10:00 Calm   Clear   34 31     88%     29.92        
Sep 22 09:55 WSW 1   Clear   34 31     89%     29.91        
Sep 22 09:45 WSW 1   Clear   33 30     89%     29.92        
Sep 22 09:40 WSW 1   Clear   32 29     90%     29.91        
Sep 22 09:35 WSW 1   Clear   32 29     89%     29.92        
Sep 22 09:30 Calm   Clear   32 30     91%     29.91        
Sep 22 09:25 WSW 1   Clear   31 28     90%     29.91        
Sep 22 09:20 WSW 1   Clear   31 29     92%     29.91        
Sep 22 09:15 WSW 1   Clear   31 29     91%     29.91        
Sep 22 09:10 WSW 1   Clear   30 28     91%     29.91        
Sep 22 09:05 Calm   Clear   30 28     91%     29.91        
Sep 22 09:00 WSW 1   Clear   30 27     90%     29.91        
Sep 22 08:52 WSW 1   Clear   30 28     91%     29.91        
Sep 22 08:46 WSW 1   Clear   30 28     91%     29.91        
Sep 22 08:38 Calm   Clear   30 28     92%     29.9        
Sep 22 08:31 Calm   Clear   30 28     93%     29.9        
Sep 22 08:24 Calm   Clear   29 27     92%     29.9        
Sep 22 08:17 Calm   Clear   29 27     92%     29.92        
Sep 22 08:10 Calm   Clear   28 26     92%     29.91        
Sep 22 08:03 Calm   Clear   28 26     91%     29.91        
Sep 22 07:46 Calm   Clear   29 26     89%     29.91        
Sep 22 07:41 Calm   Clear   29 26     89%     29.91        
Sep 22 07:36 Calm   Clear   29 26     89%     29.91        
Sep 22 07:31 Calm   Clear   29 26     89%     29.91        
Sep 22 07:21 Calm   Clear   29 26     89%     29.91        
Sep 22 07:16 Calm   Clear   29 26     89%     29.91        
Sep 22 07:11 Calm   Clear   29 26     89%     29.9        
Sep 22 07:06 Calm   Clear   29 26     89%     29.91        
Sep 22 07:01 Calm   Clear   29 26     89%     29.91        
Sep 22 06:56 Calm   Clear   29 26     89%     29.91        
Sep 22 06:51 Calm   Clear   29 26     89%     29.9        
Sep 22 06:46 Calm   Clear   29 26     90%     29.9        
Sep 22 06:41 Calm   Clear   29 26     90%     29.9        
Sep 22 06:36 Calm   Clear   29 26     90%     29.89        
Sep 22 06:31 Calm   Clear   29 26     89%     29.89        
Sep 22 06:26 Calm   Clear   29 26     89%     29.89        
Sep 22 06:21 Calm   Clear   29 26     89%     29.89        
Sep 22 06:16 Calm   Clear   29 26     89%     29.88        
Sep 22 06:11 Calm   Clear   29 26     89%     29.88        
Sep 22 06:06 Calm   Clear   29 26     89%     29.88        
Sep 22 06:01 Calm   Clear   29 26     89%     29.88        
Sep 22 05:56 Calm   Clear   29 26     90%     29.9        
Sep 22 05:51 Calm   Clear   29 26     90%     29.89        
Sep 22 05:46 Calm   Clear   29 26     90%     29.9        
Sep 22 05:41 Calm   Clear   29 26     90%     29.9        
Sep 22 05:25 Calm   Clear   29 26     89%     29.9        
Sep 22 05:20 Calm   Clear   30 27     89%     29.89        
Sep 22 05:15 Calm   Clear   30 27     89%     29.89        
Sep 22 05:10 Calm   Clear   30 27     89%     29.89        
Sep 22 05:05 Calm   Clear   30 27     89%     29.89        
Sep 22 05:00 Calm   Clear   30 27     89%     29.89        
Sep 22 04:55 Calm   Clear   30 27     90%     29.89        
Sep 22 04:48 Calm   Clear   30 27     90%     29.89        
Sep 22 04:38 Calm   Clear   30 27     89%     29.89        
Sep 22 04:33 Calm   Clear   30 27     89%     29.89        
Sep 22 04:28 Calm   Clear   30 27     90%     29.89        
Sep 22 04:23 Calm   Clear   30 27     90%     29.89        
Sep 22 04:13 Calm   Clear   30 27     90%     29.89        
Sep 22 04:08 Calm   Clear   30 27     90%     29.88        
Sep 22 03:58 Calm   Clear   30 27     90%     29.89        
Sep 22 03:52 Calm   Clear   30 27     90%     29.88        
Sep 22 03:47 Calm   Clear   30 27     90%     29.88        
Sep 22 03:42 Calm   Clear   30 27     90%     29.88        
Sep 22 03:37 Calm   Clear   30 27     90%     29.88        
Sep 22 03:32 Calm   Clear   30 27     90%     29.88        
Sep 22 03:22 Calm   Clear   30 27     90%     29.9        
Sep 22 03:17 Calm   Clear   30 27     90%     29.9        
Sep 22 03:12 Calm   Clear   31 28     89%     29.9        
Sep 22 03:07 Calm   Clear   31 28     89%     29.9        
Sep 22 02:57 Calm   Clear   31 28     90%     29.9        
Sep 22 02:52 Calm   Clear   31 28     89%     29.89        
Sep 22 02:47 Calm   Clear   31 28     90%     29.9        
Sep 22 02:42 Calm   Clear   31 28     90%     29.9        
Sep 22 02:37 Calm   Clear   31 28     90%     29.9        
Sep 22 02:32 Calm   Clear   31 28     90%     29.9        
Sep 22 02:22 Calm   Clear   31 28     90%     29.9        
Sep 22 02:17 Calm   Clear   31 28     90%     29.9        
Sep 22 02:12 Calm   Clear   31 28     90%     29.9        
Sep 22 02:07 Calm   Clear   31 29     91%     29.9        
Sep 22 02:02 Calm   Clear   31 29     91%     29.9        
Sep 22 01:52 Calm   Clear   31 28     90%     29.9        
Sep 22 01:47 Calm   Clear   31 29     91%     29.9        
Sep 22 01:37 Calm   Clear   32 29     90%     29.9        
Sep 22 01:32 Calm   Clear   32 29     90%     29.9        
Sep 22 01:22 Calm   Clear   32 29     90%     29.9        
Sep 22 01:17 Calm   Clear   32 29     90%     29.89        
Sep 22 01:12 Calm   Clear   32 29     90%     29.89        
Sep 22 01:07 Calm   Clear   32 29     90%     29.89        
Sep 22 01:02 Calm   Clear   32 29     90%     29.89        
Sep 22 00:52 Calm   Clear   32 30     91%     29.89        
Sep 22 00:47 Calm   Clear   32 29     90%     29.89        
Sep 22 00:37 Calm   Clear   32 30     91%     29.89        
Sep 22 00:32 Calm   Clear   32 29     90%     29.89        
Sep 22 00:27 Calm   Clear   32 30     91%     29.89        
Sep 22 00:22 Calm   Clear   32 30     91%     29.89        
Sep 22 00:17 Calm   Clear   33 31     91%     29.89        
Sep 22 00:12 Calm   Clear   33 31     91%     29.91        
Sep 22 00:07 Calm   Clear   33 30     90%     29.91        
Sep 22 00:02 Calm   Clear   33 31     91%     29.91        
Sep 21 23:57 Calm   Clear   33 31     91%     29.91        
Sep 21 23:52 Calm   Clear   33 31     92%     29.91        
Sep 21 23:47 Calm   Clear   33 31     92%     29.91        
Sep 21 23:42 Calm   Clear   33 31     91%     29.91        
Sep 21 23:37 Calm   Clear   33 31     91%     29.91        
Sep 21 23:32 Calm   Clear   33 31     91%     29.91        
Sep 21 23:27 Calm   Clear   33 31     91%     29.91        
Sep 21 23:22 Calm   Clear   33 31     91%     29.91        
Sep 21 23:17 Calm   Clear   33 31     91%     29.91        
Sep 21 23:12 Calm   Clear   33 31     91%     29.91        
Sep 21 23:07 Calm   Clear   33 31     91%     29.91        
Sep 21 23:02 Calm   Clear   34 32     91%     29.91        
Sep 21 22:57 Calm   Clear   34 32     91%     29.91        
Sep 21 22:52 Calm   Clear   34 32     92%     29.91        
Sep 21 22:47 Calm   Clear   34 32     92%     29.91        
Sep 21 22:42 Calm   Clear   34 32     92%     29.91        
Sep 21 22:37 Calm   Clear   34 32     92%     29.91        
Sep 21 22:32 Calm   Clear   34 32     92%     29.91        
Sep 21 22:27 Calm   Clear   34 32     92%     29.91        
Sep 21 22:22 Calm   Clear   34 32     93%     29.91        
Sep 21 22:17 Calm   Clear   34 32     93%     29.91        
Sep 21 22:12 Calm   Clear   34 32     93%     29.91        
Sep 21 22:07 Calm   Clear   34 32     93%     29.91        
Sep 21 22:02 Calm   Clear   34 32     93%     29.9        
Sep 21 21:52 Calm   Clear   34 32     93%     29.9        
Sep 21 21:47 Calm   Clear   34 32     93%     29.9        
Sep 21 21:37 Calm   Clear   33 31     93%     29.9        
Sep 21 21:32 Calm   Clear   33 31     93%     29.89        
Sep 21 21:22 Calm   Clear   34 32     92%     29.92        
Sep 21 21:17 Calm   Clear   34 32     92%     29.92        
Sep 21 21:12 Calm   Clear   34 32     92%     29.91        
Sep 21 21:07 Calm   Clear   34 32     92%     29.91        
Sep 21 21:02 Calm   Clear   34 32     92%     29.91        
Sep 21 20:57 Calm   Clear   34 32     92%     29.91        
Sep 21 20:52 Calm   Clear   34 32     92%     29.91        
Sep 21 20:47 Calm   Clear   34 32     91%     29.91        
Sep 21 20:42 Calm   Clear   34 32     91%     29.91        
Sep 21 20:37 Calm   Clear   35 33     91%     29.91        
Sep 21 20:24 Calm   Clear   35 33     91%     29.91        
Sep 21 20:17 Calm   Clear   35 33     91%     29.91        
Sep 21 20:11 Calm   Clear   35 33     91%     29.91        
Sep 21 20:06 Calm   Clear   35 33     91%     29.91        
Sep 21 20:01 Calm   Clear   35 33     92%     29.91        
Sep 21 19:51 Calm   Clear   35 33     92%     29.91        
Sep 21 19:46 Calm   Clear   35 33     91%     29.91        
Sep 21 19:36 Calm   Clear   35 33     92%     29.91        
Sep 21 19:31 Calm   Clear   35 33     92%     29.91        
Sep 21 19:26 Calm   Clear   35 33     93%     29.91        
Sep 21 19:11 Calm   Clear   35 33     92%     29.9        
Sep 21 19:06 Calm   Clear   35 33     92%     29.92        
Sep 21 19:01 Calm   Clear   35 33     92%     29.91        
Sep 21 18:56 Calm   Clear   35 33     92%     29.91        
Sep 21 18:51 Calm   Clear   35 33     92%     29.91        
Sep 21 18:46 Calm   Clear   36 34     92%     29.91        
Sep 21 18:41 Calm   Clear   36 34     92%     29.91        
Sep 21 18:31 Calm   Clear   36 34     93%     29.91        
Sep 21 18:26 Calm   Clear   36 34     93%     29.91        
Sep 21 18:14 Calm   Clear   36 34     92%     29.91        
Sep 21 18:09 Calm   Clear   37 35     92%     29.91        
Sep 21 18:04 Calm   Clear   37 35     93%     29.9        
Sep 21 17:54 Calm   Clear   37 35     92%     29.9        
Sep 21 17:49 Calm   Clear   37 35     92%     29.89        
Sep 21 17:44 WSW 1   Clear   38 35     90%     29.89        
Sep 21 17:39 SW 1   Clear   38 35     90%     29.89        
Sep 21 17:34 SW 1   Clear   39 37     91%     29.91        
Sep 21 17:29 WSW 1   Clear   39 36     89%     29.91        
Sep 21 17:24 Calm   Clear   39 36     90%     29.91        
Sep 21 17:18 Calm   Clear   39 37     91%     29.9        
Sep 21 17:13 Calm   Clear   39 37     91%     29.9        
Sep 21 17:08 Calm   Clear   39 36     90%     29.9        
Sep 21 17:03 Calm   Clear   39 36     89%     29.9        
Sep 21 16:58 WSW 1   Clear   39 35     87%     29.89        
Sep 21 16:53 Calm   Clear   39 36     90%     29.89        
Sep 21 16:48 Calm   Clear   39 36     90%     29.89        
Sep 21 16:43 Calm   Clear   39 36     90%     29.89        
Sep 21 16:38 Calm   Clear   39 37     92%     29.88        
Sep 21 16:33 Calm   Clear   39 36     90%     29.88        
Sep 21 16:28 W 1   Clear   39 36     90%     29.88        
Sep 21 16:23 W 2   Clear   39 37     91%     29.88        
Sep 21 16:18 WSW 2   Clear   40 37     90%     29.89        
Sep 21 16:13 Calm   Clear   40 37     88%     29.88        
Sep 21 16:08 SW 2   Clear   40 36     87%     29.88        
Sep 21 16:03 Calm   Clear   40 37     89%     29.88        
Sep 21 15:58 W 1   Clear   40 38     93%              
Sep 21 15:53 WSW 3   Clear   40 37     90% 38            
Sep 21 15:48 SW 3   Clear   39 36     88% 37            
Sep 21 15:43 WSW 2   Clear   39 37     91%              
Sep 21 15:38 Calm   Clear   38 37     95%              
Sep 21 15:33 Calm   Clear   37 35     94%              
Sep 21 15:28 Calm   Clear   37 35     93%              
Sep 21 15:23 Calm   Clear   37 35     93%              
Sep 21 15:18 Calm   Clear   37 35     94%              
Sep 21 15:13 Calm   Clear   37 35     94%              
Sep 21 15:03 Calm   Clear   37 35     94%              
Sep 21 14:58 Calm   Clear   36 34     94%              
Sep 21 14:53 Calm   Clear   36 34     94%              
Sep 21 14:48 Calm   Clear   36 34     93%              
Sep 21 14:43 Calm   Clear   36 34     92%              
Sep 21 14:38 Calm   Clear   36 34     91%              
Sep 21 14:33 Calm   Clear   37 35     91%     29.89        
Sep 21 14:26 WSW 1   Clear   38 35     90%     29.89        
Sep 21 14:19 Calm   Clear   38 36     91%     29.89        
Sep 21 14:12 WSW 2   Clear   39 36     89%     29.88        
Sep 21 14:00 Calm   Clear   39 36     89%     29.88        
Sep 21 13:55 SW 3   Clear   40 38     91% 38   29.88        
Sep 21 13:50 Calm   Clear   40 38     91%     29.88        
Sep 21 13:40 WSW 1   Clear   41 38     89%              
Sep 21 13:35 SW 5   Clear   40 36     87% 36            
Sep 21 13:30 SW 5   Clear   41 37     87% 38   29.87        
Sep 21 13:25 SW 2   Clear   41 39     93%     29.89        
Sep 21 13:20 W 1   Clear   40 38     93%     29.9        
Sep 21 13:15 W 1   Clear   40 38     93%     29.9        
Sep 21 13:10 WSW 4   Clear   39 37     92% 36   29.9        
Sep 21 13:00 WSW 3   Clear   38 36     92% 36            
Sep 21 12:55 WSW 5   Clear   38 36     91% 34            
Sep 21 12:50 WSW 4   Clear   38 36     93% 35            
Sep 21 12:45 WSW 2   Clear   38 36     93%              
Sep 21 12:40 WSW 5   Clear   38 36     91% 34            
Sep 21 12:35 WSW 2   Clear   39 37     94%              
Sep 21 12:30 WSW 3   Clear   38 36     93% 36            
Sep 21 12:17 WSW 5   Clear   39 37     92% 35            
Sep 21 12:12 SW 2   Clear   39 37     94%              
Sep 21 12:07 Calm   Clear   39 37     93%              
Sep 21 12:02 WSW 4   Clear   39 37     92% 36            
Sep 21 11:57 WSW 2   Clear   39 37     91%              
Sep 21 11:52 Calm   Clear   39 37     94%     29.88        
Sep 21 11:47 WSW 4   Clear   39 37     93% 36   29.88        
Sep 21 11:42 Calm   Clear   39 38     96%     29.88        
Sep 21 11:37 WSW 2   Clear   39 38     95%     29.88        
Sep 21 11:32 Calm   Clear   38 37     95%     29.88        
Sep 21 11:27 Calm   Clear   38 37     95%     29.89        
Sep 21 11:22 WSW 2   Clear   38 36     94%     29.91        
Sep 21 11:12 SW 2   Clear   38 36     94%     29.9        
Sep 21 11:03 W 3   Clear   38 36     93% 36   29.9        
Sep 21 10:58 WSW 2   Clear   38 36     94%     29.9        
Sep 21 10:53 WSW 1   Clear   38 36     93%     29.9        
Sep 21 10:48 SW 2   Clear   38 36     93%     29.9        
Sep 21 10:38 Calm   Clear   39 37     94%     29.9        
Sep 21 10:33 Calm   Clear   39 38     95%     29.9        
Sep 21 10:28 Calm   Clear   38 37     95%     29.9        
Sep 21 10:23 Calm   Clear   38 37     95%     29.9        
Sep 21 10:18 Calm   Clear   38 37     95%     29.9        
Sep 21 10:13 Calm   Clear   38 36     94%     29.91        
Sep 21 09:58 Calm   Clear   37 35     94%              
Jun 12 00:33 Calm   Clear   31 29     91%              
Jun 11 21:16 Calm   Clear   36 33     87%     29.92        
Jun 11 19:36 SW 2   Clear   37 34     87%              
Jun 11 14:06 SW 1   Clear   37 36     96%              
Jun 11 13:51 Calm   Clear   36 35     95%              
Jun 11 13:26 WSW 2   Clear   37 36     95%              
Jun 11 06:04 Calm   Clear   36 33     87%              
Jun 11 02:39 Calm   Clear   36 33     88%              
Jun 11 01:35 Calm   Clear   37 33     86%              
Jun 11 00:18 Calm   Clear   39 34     83%              
Jun 11 00:08 Calm   Clear   40 35     83%              
Jun 10 20:37 Calm   Clear   45 44     95%     29.96        
Jun 10 20:17 WSW 1   Clear   45 44     95%              
Jun 10 16:43 SW 3   Clear   48 45     91% 47            
Notice The following observation data may not be complete
Jun 10 15:55     Clear            %              
Jun 10 15:45 SW 5   Clear   49 46     89% 47            
Jun 10 15:20 SW 5   Clear   51 47     87%              
Jun 10 11:29 SW 3   Clear   47 45     93% 46            
Jun 10 07:41 Calm   Clear   47 41     80%     29.98        
Jun 10 04:27 Calm   Clear   39 36     89%     29.98        
Jun 10 04:02 Calm   Clear   39 36     88%     29.99        
Jun 10 03:49 Calm   Clear   39 36     88%     29.99        
Jun 10 02:24 W 1   Clear   40 36     86%     30.01        
Jun 09 22:59 Calm   Clear   46 40     79%     30.06        
Jun 09 22:39 Calm   Clear   47 40     76%     30.05        
Jun 09 21:42 Calm   Clear   50 47     88%     30.04        
Jun 09 21:22 Calm   Clear   51 47     87%     30.03        
Jun 09 20:37 Calm   Clear   52 49     90%     30.03        
Jun 09 20:27 Calm   Clear   51 48     90%     30.03        
Jun 09 18:16 WSW 4   Clear   53 49     85%     30.04        
Jun 09 17:41 WSW 3   Clear   54 48     81%     30.05        
Jun 09 15:51 WSW 4   Clear   58 48     69%     30.04        
Jun 09 07:05 Calm   Clear   41 38     90%     30.07        
Jun 09 06:15 Calm   Clear   40 37     88%     30.08        
Jun 09 04:55 Calm   Clear   41 37     87%     30.09        
Jun 09 03:25 Calm   Clear   42 38     86%     30.1        
Jun 09 03:15 Calm   Clear   42 38     86%     30.1        
Jun 08 23:04 Calm   Clear   47 41     81%     30.14        
Jun 08 22:21 Calm   Clear   48 41     78%     30.14        
Jun 08 16:28 SW 3   Clear   59 45     59%     30.14        
Jun 08 13:28 WSW 4   Clear   57 45     65%     30.17        
Jun 08 12:33 WSW 3   Clear   58 46     65%     30.16        
Jun 08 12:18 WSW 5   Clear   58 46     64%     30.16        
Jun 08 10:08 WSW 4   Clear   56 41     56%     30.15        
Jun 08 08:18 Calm   Clear   53 41     64%     30.13        
Jun 08 07:13 Calm   Clear   45 39     78%     30.13        
Jun 08 06:55 Calm   Clear   44 38     80%     30.12        
Notice The following observation data may not be complete
Jun 08 05:15 Calm   Clear     37      %     30.12        
Jun 08 03:41 Calm   Clear   44 38     78%     30.14        
Jun 08 02:31 Calm   Clear   45 38     77%     30.13        
Jun 07 23:56 Calm   Clear   49 39     68%     30.14        
Jun 07 18:16 SW 1   Clear   65 43     45%     30.13        
Jun 07 16:46 WSW 2   Clear   69 44     41%     30.13        
Jun 07 11:49 SW 6   Clear   67 40     37%     30.14        
Jun 07 09:04 WSW 1   Clear   62 35     37%     30.11        
Jun 07 06:08 Calm   Clear   42 36     78%     30.13        
Jun 06 10:25 WSW 4   Clear   65 37     36%     30.16        
Jun 06 09:28 SW 3   Clear   64 34     33%     30.16        
Jun 06 08:28 Calm   Clear   54 39     57%     30.14        
Notice The following observation data may not be complete
Jun 06 08:13 Calm   Clear     37      %     30.14        
Notice The following observation data may not be complete
Jun 06 08:03 Calm   Clear     37      %     30.14        
Notice The following observation data may not be complete
Jun 06 07:01 Calm   Clear     33      %     30.15        
Jun 06 06:26 Calm   Clear   40 32     73%     30.14        
Notice The following observation data may not be complete
Jun 06 06:16 Calm   Clear     32      %     30.14        
Notice The following observation data may not be complete
Jun 06 05:41 Calm   Clear     32      %     30.14        
Notice The following observation data may not be complete
Jun 06 05:01 Calm   Clear     33      %     30.15        
Jun 06 03:13 Calm   Clear   43 36     75%     30.15        
Notice The following observation data may not be complete
Jun 06 02:33 Calm   Clear     37      %     30.15        
Jun 06 01:17 Calm   Clear   46 40     79%     30.16        
Jun 06 01:12 Calm   Clear   47 41     79%     30.16        
Jun 06 00:22 Calm   Clear   48 41     78%     30.16        
Jun 05 22:03 Calm   Clear   53 43     69%     30.17        
Jun 05 19:40 Calm   Clear   61 45     56%     30.14        
Jun 05 15:51 WSW 5   Clear   68 44     42%     30.11